TimeEDT,TemperatureF,Dew PointF,Humidity,Sea Level PressureIn,VisibilityMPH,Wind Direction,Wind SpeedMPH,Gust SpeedMPH,PrecipitationIn,Events,Conditions,WindDirDegrees,DateUTC
12:53 AM,45.0,42.1,90,29.97,10.0,SSW,9.2,-,N/A,,Overcast,210,2012-10-06 04:53:00
1:31 AM,44.6,42.8,93,29.96,10.0,SW,10.4,-,N/A,,Overcast,220,2012-10-06 05:31:00
1:53 AM,45.0,41.0,86,29.97,10.0,SW,9.2,-,N/A,,Overcast,220,2012-10-06 05:53:00
2:12 AM,44.6,41.0,87,29.96,10.0,SW,10.4,-,N/A,,Overcast,230,2012-10-06 06:12:00
2:53 AM,44.1,41.0,89,29.97,9.0,SW,9.2,-,N/A,,Mostly Cloudy,230,2012-10-06 06:53:00
3:53 AM,42.1,39.9,92,29.96,8.0,SSW,8.1,-,N/A,,Scattered Clouds,210,2012-10-06 07:53:00
4:53 AM,41.0,37.9,89,29.96,6.0,SSW,6.9,-,N/A,,Partly Cloudy,210,2012-10-06 08:53:00
5:53 AM,39.9,37.0,89,29.97,7.0,SSW,8.1,-,N/A,,Partly Cloudy,210,2012-10-06 09:53:00
7:53 AM,39.9,37.0,89,30.00,9.0,SW,6.9,-,N/A,,Mostly Cloudy,230,2012-10-06 11:53:00
8:53 AM,42.1,37.9,85,30.03,10.0,WSW,10.4,-,N/A,,Mostly Cloudy,250,2012-10-06 12:53:00
9:53 AM,44.6,37.4,76,30.03,10.0,SW,9.2,-,N/A,,Mostly Cloudy,230,2012-10-06 13:53:00
10:53 AM,48.0,37.9,68,30.04,10.0,WSW,12.7,21.9,N/A,,Mostly Cloudy,240,2012-10-06 14:53:00
11:24 AM,46.4,33.8,62,30.03,10.0,West,15.0,25.3,N/A,,Overcast,260,2012-10-06 15:24:00
11:53 AM,48.0,32.0,54,30.04,10.0,WSW,13.8,23.0,N/A,,Overcast,250,2012-10-06 15:53:00
12:27 PM,48.2,32.0,54,30.03,10.0,West,13.8,24.2,N/A,,Overcast,260,2012-10-06 16:27:00
12:53 PM,50.0,32.0,50,30.04,10.0,WSW,16.1,25.3,N/A,,Overcast,250,2012-10-06 16:53:00
1:53 PM,50.0,32.0,50,30.04,10.0,West,15.0,-,N/A,,Overcast,260,2012-10-06 17:53:00
2:53 PM,48.9,32.0,52,30.05,10.0,West,11.5,20.7,N/A,,Overcast,270,2012-10-06 18:53:00
3:53 PM,48.9,33.1,54,30.06,10.0,West,11.5,18.4,N/A,,Overcast,260,2012-10-06 19:53:00
4:53 PM,48.9,34.0,56,30.06,10.0,West,10.4,-,N/A,,Mostly Cloudy,260,2012-10-06 20:53:00
5:53 PM,48.9,34.0,56,30.07,10.0,WSW,11.5,-,N/A,,Mostly Cloudy,250,2012-10-06 21:53:00
6:53 PM,48.0,34.0,58,30.09,10.0,West,8.1,-,N/A,,Mostly Cloudy,260,2012-10-06 22:53:00
7:53 PM,46.9,36.0,66,30.11,10.0,WSW,9.2,-,N/A,,Overcast,250,2012-10-06 23:53:00
8:53 PM,46.0,35.1,66,30.12,10.0,WSW,6.9,-,N/A,,Overcast,250,2012-10-07 00:53:00
9:53 PM,45.0,36.0,71,30.12,10.0,WSW,6.9,-,N/A,,Overcast,240,2012-10-07 01:53:00
10:53 PM,45.0,36.0,71,30.13,10.0,WSW,5.8,-,N/A,,Overcast,240,2012-10-07 02:53:00
11:53 PM,45.0,36.0,71,30.13,10.0,West,5.8,-,N/A,,Overcast,260,2012-10-07 03:53:00